FW6464 Weather Reports


time (UTC)temp
C
wind
direction
speed
KPH
gust
KPH
rain 1hr
cm
rain 24hr
cm
rain mn
cm
humidity
%
barometer
mb
20260504081539 11 0 0.0 1.6 0.00 0.00 0.00 94 1017.3
20260504044544 12 0 0.0 1.6 0.00 0.00 0.00 87 1018.6
20260504043047 13 0 0.0 0.0 0.00 0.00 0.00 87 1018.6
20260504041541 13 0 0.0 0.0 0.00 0.00 0.00 85 1018.7
20260504040041 13 0 0.0 0.0 0.00 0.00 0.00 84 1018.8
20260504034547 13 0 0.0 0.0 0.00 0.00 0.00 83 1018.6
20260504033048 14 0 0.0 0.0 0.00 0.00 0.00 81 1018.7
20260504031554 14 0 0.0 1.6 0.00 0.00 0.00 79 1018.7
20260504030045 14 107 1.6 3.2 0.00 0.00 0.00 78 1018.8
20260504024539 15 0 0.0 0.0 0.00 0.00 0.00 77 1018.4
20260504023045 15 0 0.0 0.0 0.00 0.00 0.00 75 1018.2
20260504021546 15 0 0.0 0.0 0.00 0.00 0.00 71 1018.0
20260504020055 16 0 0.0 0.0 0.00 0.00 0.00 69 1018.0
20260504014545 16 0 0.0 0.0 0.00 0.00 0.00 66 1017.9
20260504013043 17 0 0.0 0.0 0.00 0.00 0.00 64 1017.8
20260504011541 17 0 0.0 0.0 0.00 0.00 0.00 62 1017.6
20260504010050 17 0 0.0 0.0 0.00 0.00 0.00 58 1017.8
20260504004546 18 0 0.0 0.0 0.00 0.00 0.00 54 1017.6
20260504003044 20 0 0.0 0.0 0.00 0.00 0.00 51 1017.5
20260504001550 20 161 0.0 0.0 0.00 0.00 0.00 50 1017.2
20260504000043 21 231 0.0 4.8 0.00 0.00 0.00 48 1017.2
20260503234603 22 214 0.0 3.2 0.00 0.00 0.00 44 1017.2
20260503233050 21 139 0.0 3.2 0.00 0.00 0.00 46 1017.2
20260503231545 21 0 0.0 3.2 0.00 0.00 0.00 48 1017.3
20260503230043 21 229 1.6 6.4 0.00 0.00 0.00 44 1017.4
20260503224540 22 254 1.6 6.4 0.00 0.00 0.00 43 1017.4
20260503223039 22 216 1.6 8.0 0.00 0.00 0.00 42 1017.6
20260503221556 22 131 1.6 6.4 0.00 0.00 0.00 41 1017.6
20260503220046 23 238 1.6 6.4 0.00 0.00 0.00 42 1017.8
20260503214542 23 160 1.6 6.4 0.00 0.00 0.00 40 1017.8
20260503213044 23 275 1.6 9.7 0.00 0.00 0.00 39 1017.9
20260503211539 23 39 1.6 8.0 0.00 0.00 0.00 41 1018.0
20260503210047 23 40 3.2 6.4 0.00 0.00 0.00 38 1018.2
20260503204546 23 86 1.6 11.3 0.00 0.00 0.00 39 1018.4
20260503203054 23 56 3.2 14.5 0.00 0.00 0.00 40 1018.6
20260503201543 24 82 3.2 8.0 0.00 0.00 0.00 37 1018.7
20260503200040 24 99 3.2 9.7 0.00 0.00 0.00 37 1019.2
20260503194555 24 105 3.2 6.4 0.00 0.00 0.00 37 1019.5
20260503193046 24 84 1.6 8.0 0.00 0.00 0.00 37 1019.7
20260503191547 24 49 1.6 8.0 0.00 0.00 0.00 37 1020.0
20260503190043 24 13 3.2 8.0 0.00 0.00 0.00 37 1020.0
20260503184540 23 80 3.2 8.0 0.00 0.00 0.00 36 1020.2
20260503183049 24 48 3.2 8.0 0.00 0.00 0.00 36 1020.5
20260503181544 23 104 1.6 6.4 0.00 0.00 0.00 31 1020.7
20260503180056 24 262 3.2 8.0 0.00 0.00 0.00 34 1020.9
20260503174540 23 29 3.2 9.7 0.00 0.00 0.00 35 1021.1
20260503173044 23 221 3.2 9.7 0.00 0.00 0.00 33 1021.4
20260503171549 23 252 3.2 12.9 0.00 0.00 0.00 36 1021.6